When you browse on this site, cookies collect data to enhance your experience and personalize the content and advertising you see.
Visit our Privacy Policy to learn more. By continuing to use the site, you agree to this use of cookies and data.
  • în România
  • Lista ţărilor
  • Pe 7 zile
  • Temperatura apei
  • Hartă satelitară
  • Meteo pe hartă
  • Widget-uri
  • user-avatar
    Intrare

    Meteo pe oră la Craiova

    Astăzi, 22 Ianuarie, Marţi

    Timp Temperatura Precipitaţii Vânt Presiune Umiditate
    00:00 -3°C° 0 mm 4 m/s 755 mmHg 89%
    01:00 -4°C° 0 mm 4 m/s 755 mmHg 88%
    02:00 -4°C° 0 mm 4 m/s 755 mmHg 86%
    03:00 -5°C° 0 mm 5 m/s 755 mmHg 86%
    04:00 -5°C° 0 mm 5 m/s 755 mmHg 85%
    05:00 -5°C° 0 mm 5 m/s 754 mmHg 84%
    06:00 -5°C° 0.1 mm 5 m/s 754 mmHg 85%
    07:00 -5°C° 0.1 mm 5 m/s 754 mmHg 86%
    08:00 -5°C° 0.1 mm 5 m/s 753 mmHg 87%
    09:00 -5°C° 0.2 mm 5 m/s 753 mmHg 88%
    10:00 -5°C° 0.2 mm 5 m/s 753 mmHg 89%
    11:00 -5°C° 0.2 mm 5 m/s 752 mmHg 89%
    12:00 -5°C° 0.1 mm 5 m/s 751 mmHg 89%
    13:00 -4°C° 0.1 mm 5 m/s 750 mmHg 90%
    14:00 -4°C° 0.1 mm 5 m/s 750 mmHg 90%
    15:00 -4°C° 0.1 mm 5 m/s 749 mmHg 90%
    16:00 -4°C° 0.1 mm 5 m/s 749 mmHg 91%
    17:00 -3°C° 0.1 mm 4 m/s 748 mmHg 92%
    18:00 -3°C° 0.2 mm 4 m/s 748 mmHg 92%
    19:00 -3°C° 0.2 mm 4 m/s 747 mmHg 93%
    20:00 -4°C° 0.2 mm 5 m/s 747 mmHg 93%
    21:00 -2°C° 0.2 mm 5 m/s 746 mmHg 94%
    22:00 -2°C° 0.2 mm 5 m/s 746 mmHg 94%
    23:00 -2°C° 0.2 mm 5 m/s 745 mmHg 94%

    Mâine, 23 Ianuarie, Miercuri

    Timp Temperatura Precipitaţii Vânt Presiune Umiditate
    00:00 -1°C° 1.1 mm 4 m/s 745 mmHg 95%
    01:00 -1°C° 1.1 mm 4 m/s 744 mmHg 95%
    02:00 -1°C° 1.1 mm 4 m/s 744 mmHg 96%
    03:00 0°C° 1.1 mm 3 m/s 743 mmHg 96%
    04:00 0°C° 1.1 mm 3 m/s 743 mmHg 97%
    05:00 +1°C° 1.1 mm 2 m/s 742 mmHg 97%
    06:00 +2°C° 0.2 mm 1 m/s 742 mmHg 97%
    07:00 +2°C° 0.2 mm 1 m/s 742 mmHg 97%
    08:00 +1°C° 0.2 mm 0 m/s 742 mmHg 97%
    09:00 +1°C° 0 mm 0 m/s 742 mmHg 97%
    10:00 +2°C° 0 mm 0 m/s 742 mmHg 98%
    11:00 +2°C° 0 mm 0 m/s 742 mmHg 99%
    12:00 +2°C° 0 mm 0 m/s 742 mmHg 99%
    13:00 +2°C° 0 mm 0 m/s 742 mmHg 99%
    14:00 +2°C° 0 mm 0 m/s 741 mmHg 99%
    15:00 +3°C° 0 mm 1 m/s 741 mmHg 99%
    16:00 +3°C° 0 mm 1 m/s 741 mmHg 99%
    17:00 +3°C° 0 mm 1 m/s 741 mmHg 98%
    18:00 +2°C° 0 mm 1 m/s 741 mmHg 98%
    19:00 +1°C° 0 mm 2 m/s 741 mmHg 98%
    20:00 +1°C° 0 mm 2 m/s 741 mmHg 97%
    21:00 +1°C° 0.1 mm 2 m/s 741 mmHg 95%
    22:00 +1°C° 0.1 mm 2 m/s 741 mmHg 93%
    23:00 +1°C° 0.1 mm 2 m/s 741 mmHg 91%

    Poimâine, 24 Ianuarie, Joi

    Timp Temperatura Precipitaţii Vânt Presiune Umiditate
    00:00 +1°C° 0.1 mm 2 m/s 741 mmHg 89%
    01:00 +1°C° 0.1 mm 2 m/s 740 mmHg 86%
    02:00 +1°C° 0.1 mm 2 m/s 740 mmHg 84%
    03:00 +1°C° 0.4 mm 2 m/s 740 mmHg 86%
    04:00 +2°C° 0.4 mm 2 m/s 739 mmHg 87%
    05:00 +2°C° 0.4 mm 2 m/s 739 mmHg 89%
    06:00 +1°C° 0.1 mm 3 m/s 739 mmHg 91%
    07:00 +1°C° 0.1 mm 3 m/s 739 mmHg 94%
    08:00 +1°C° 0.1 mm 3 m/s 739 mmHg 96%
    09:00 +1°C° 0.1 mm 3 m/s 739 mmHg 97%
    10:00 +1°C° 0.1 mm 3 m/s 739 mmHg 98%
    11:00 +1°C° 0.1 mm 3 m/s 739 mmHg 99%
    12:00 0°C° 0.6 mm 4 m/s 739 mmHg 98%
    13:00 0°C° 0.6 mm 4 m/s 739 mmHg 97%
    14:00 0°C° 0.6 mm 5 m/s 739 mmHg 96%
    15:00 0°C° 0.4 mm 5 m/s 739 mmHg 96%
    16:00 0°C° 0.4 mm 5 m/s 739 mmHg 96%
    17:00 0°C° 0.4 mm 5 m/s 739 mmHg 95%
    18:00 0°C° 0.5 mm 5 m/s 739 mmHg 95%
    19:00 0°C° 0.5 mm 5 m/s 740 mmHg 94%
    20:00 0°C° 0.5 mm 5 m/s 740 mmHg 94%
    21:00 0°C° 0.6 mm 4 m/s 740 mmHg 94%
    22:00 0°C° 0.6 mm 4 m/s 741 mmHg 94%
    23:00 +1°C° 0.6 mm 3 m/s 741 mmHg 94%

    25 Ianuarie, Vineri

    Timp Temperatura Precipitaţii Vânt Presiune Umiditate
    00:00 +1°C° 0.2 mm 3 m/s 741 mmHg 94%
    01:00 0°C° 0.2 mm 3 m/s 741 mmHg 94%
    02:00 0°C° 0.2 mm 3 m/s 742 mmHg 95%
    03:00 +1°C° 0.2 mm 2 m/s 742 mmHg 95%
    04:00 +1°C° 0.2 mm 2 m/s 742 mmHg 95%
    05:00 +1°C° 0.2 mm 2 m/s 742 mmHg 95%
    06:00 +1°C° 0.3 mm 2 m/s 742 mmHg 95%
    07:00 +1°C° 0.3 mm 2 m/s 742 mmHg 95%
    08:00 +1°C° 0.3 mm 2 m/s 743 mmHg 95%
    09:00 +1°C° 0.1 mm 2 m/s 743 mmHg 95%
    10:00 +1°C° 0.1 mm 3 m/s 743 mmHg 95%
    11:00 +1°C° 0.1 mm 3 m/s 743 mmHg 95%
    12:00 +1°C° 0 mm 3 m/s 743 mmHg 94%
    13:00 +1°C° 0 mm 3 m/s 743 mmHg 94%
    14:00 0°C° 0 mm 4 m/s 742 mmHg 94%
    15:00 0°C° 0.2 mm 4 m/s 742 mmHg 94%
    16:00 0°C° 0.2 mm 4 m/s 742 mmHg 94%
    17:00 0°C° 0.2 mm 4 m/s 742 mmHg 94%
    18:00 0°C° 0.3 mm 4 m/s 742 mmHg 93%
    19:00 0°C° 0.3 mm 5 m/s 742 mmHg 93%
    20:00 -1°C° 0.3 mm 5 m/s 741 mmHg 92%
    21:00 -2°C° 0.2 mm 6 m/s 741 mmHg 93%
    22:00 -1°C° 0.2 mm 6 m/s 741 mmHg 93%
    23:00 -1°C° 0.2 mm 6 m/s 741 mmHg 93%

    26 Ianuarie, Sâmbătă

    Timp Temperatura Precipitaţii Vânt Presiune Umiditate
    00:00 -1°C° 0.6 mm 6 m/s 741 mmHg 93%
    01:00 0°C° 0.6 mm 5 m/s 741 mmHg 93%
    02:00 0°C° 0.6 mm 5 m/s 740 mmHg 94%
    03:00 0°C° 1.6 mm 4 m/s 740 mmHg 95%
    04:00 +1°C° 1.6 mm 3 m/s 740 mmHg 96%
    05:00 +1°C° 1.6 mm 2 m/s 740 mmHg 97%
    06:00 +1°C° 0.9 mm 2 m/s 741 mmHg 97%
    07:00 +1°C° 0.9 mm 2 m/s 741 mmHg 97%
    08:00 0°C° 0.9 mm 3 m/s 741 mmHg 97%
    09:00 +1°C° 0.1 mm 2 m/s 742 mmHg 98%
    10:00 +1°C° 0.1 mm 2 m/s 742 mmHg 99%
    11:00 +1°C° 0.1 mm 2 m/s 742 mmHg 99%
    12:00 +1°C° 0.1 mm 2 m/s 742 mmHg 99%
    13:00 +2°C° 0.1 mm 1 m/s 742 mmHg 99%
    14:00 +2°C° 0.1 mm 1 m/s 742 mmHg 99%
    15:00 +2°C° 0.2 mm 1 m/s 742 mmHg 99%
    16:00 +2°C° 0.2 mm 1 m/s 742 mmHg 99%
    17:00 +2°C° 0.2 mm 1 m/s 743 mmHg 99%
    18:00 +2°C° 0.2 mm 1 m/s 743 mmHg 98%
    19:00 +2°C° 0.2 mm 1 m/s 743 mmHg 98%
    20:00 +2°C° 0.2 mm 1 m/s 743 mmHg 98%
    21:00 +2°C° 0.3 mm 1 m/s 743 mmHg 97%
    22:00 +2°C° 0.3 mm 1 m/s 743 mmHg 97%
    23:00 +2°C° 0.3 mm 1 m/s 743 mmHg 97%

    27 Ianuarie, Duminică

    Timp Temperatura Precipitaţii Vânt Presiune Umiditate
    00:00 +2°C° 0.3 mm 1 m/s 743 mmHg 97%
    01:00 +2°C° 0.3 mm 1 m/s 743 mmHg 97%
    02:00 +2°C° 0.3 mm 1 m/s 743 mmHg 97%
    03:00 +2°C° 0.3 mm 1 m/s 743 mmHg 97%
    04:00 0°C° 0.3 mm 0 m/s 743 mmHg 97%
    05:00 0°C° 0.3 mm 0 m/s 743 mmHg 97%
    06:00 +1°C° 0.1 mm 1 m/s 743 mmHg 96%
    07:00 +1°C° 0.1 mm 1 m/s 743 mmHg 96%
    08:00 +1°C° 0.1 mm 1 m/s 743 mmHg 96%
    09:00 +1°C° 0.1 mm 1 m/s 744 mmHg 97%
    10:00 +1°C° 0.1 mm 1 m/s 744 mmHg 98%
    11:00 +2°C° 0.1 mm 1 m/s 744 mmHg 99%
    12:00 +1°C° 0.1 mm 0 m/s 744 mmHg 99%
    13:00 +1°C° 0.1 mm 0 m/s 744 mmHg 99%
    14:00 +1°C° 0.1 mm 0 m/s 743 mmHg 99%
    15:00 +1°C° 0.1 mm 0 m/s 744 mmHg 99%
    16:00 +1°C° 0.1 mm 0 m/s 744 mmHg 98%
    17:00 +1°C° 0.1 mm 0 m/s 744 mmHg 98%
    18:00 +2°C° 0 mm 1 m/s 745 mmHg 97%
    19:00 +1°C° 0 mm 1 m/s 745 mmHg 97%
    20:00 +1°C° 0 mm 1 m/s 746 mmHg 96%
    21:00 +1°C° 0 mm 1 m/s 746 mmHg 96%
    22:00 0°C° 0 mm 0 m/s 746 mmHg 96%
    23:00 -1°C° 0 mm 0 m/s 747 mmHg 96%
    Arată mai mult